ATLAS 5 CENTAUR DEB, 47249

Orbit data source: Space-Track

ATLAS 5 CENTAUR DEB, 47249 is space debris in HEO originally from a launch on Wed, 17 Oct 2018 UTC launched from the Air Force Eastern Test Range (AFETR). Debris objects in space refer to the collection of defunct objects orbiting the Earth. Examples of debris include non-operational satellites, rocket bodies, and fragments generated from explosions, collisions, or faulty payload assembly.

Loading next visibility...
Identifier
47249, 2018-079EH
Orbit
HEO
Country
Flag of USUS
Related business
Flag of USUnited Launch Alliance/Lockheed Martin (US)
Manufacturer
ULA Decatur
Mission
Spacecraft
Bus & Motor
Unknown
Mass
Unknown
Launch date (UTC)
2018-10-17 (7 years ago)
Launch vehicle
Unknown
Launch site
Air Force Eastern Test Range (AFETR)
Object type
Payload
Rocket body
Debris
Shape & HBR
Unknown shape, 1.1 m
Radar Cross Section
RCS unknown

Expand to show TLE details & history
Last TLE update: 19 hours ago

TLE from 19 hours ago
0 ATLAS 5 CENTAUR DEB
1 47249U 18079EH  26072.77664237 -.00000201  00000-0  00000-0 0  9994
2 47249  13.7644  29.1036 4819774 321.6912  12.2816  1.82667366 35269
Epoch: 2026-03-13T18:38Z
TLE epoch observation values (Epoch: 2026-03-13T18:38:21.900Z)
Latitude
-0.00011°
Longitude
-61.86258°
Altitude
9,340.525 km
Speed
6.051 km/s
True Right ascension
01h 56m 32s
True Declination
0° 00' 00"
Sunlit
Object was in daylight at epoch
Visualization orbit readout
Latitude
Unknown
Longitude
Unknown
Altitude
Unknown
Speed
Unknown
Apparent Right ascension
Unknown
Apparent Declination
Unknown
Sunlit
N/A
Visualization observer readout
Local Sidereal Time
18:29:58
Azimuth
Unknown
Elevation
Unknown
Doppler factor
Unknown
Orbital elements
Apogee altitude
35,517.514 km
Perigee altitude
8,266.414 km
Semi-major axis
28,270.101 km
Eccentricity
0.48198
Inclination
13.7644°
RAAN
29.1036°
Arg. of periapsis
321.6912°
True anomaly
38.18161°
Mean anomaly
12.2816°
Eccentric anomaly
23.12891°
Mean motion
0.45662 °/min
Orbital period
788.41 mins
BSTAR
0
Loading maneuver chart data...
Computing Atmospheric mass density...

Documentation

Showing up to 5 results
|